Ely, MN

7:26 AM CST on November 23, 2017 (GMT -0600)
Ely Municipal

Weather History for KELO - October, 2013

Change the Weather History Date:

Thursday, October 31, 2013

  Actual Average Record
Temperature  
Mean Temperature 39 °F -  
Max Temperature 41 °F 41 °F 66 °F (1999)
Min Temperature 37 °F 27 °F 12 °F (2012)
Degree Days  
Heating Degree Days 26    
Moisture  
Dew Point 38 °F    
Average Humidity 96    
Maximum Humidity 100    
Minimum Humidity 93    
Precipitation  
Precipitation 0.00 in - - ()
Sea Level Pressure  
Sea Level Pressure 29.45 in    
Wind  
Wind Speed 1 mph (NW)    
Max Wind Speed 6 mph    
Max Gust Speed -    
Visibility 4 miles    
Events Fog , Rain    
Averages and records for this station are not official NWS values.
T = Trace of Precipitation, MM = Missing Value Source: NWS Daily Summary

Daily Weather History Graph

Daily Weather History Graph

Search for Another Location

Airport or City:

Trip Planner

Search our weather history database for the weather conditions in past years. The results will help you decide how hot, cold, wet, or windy it might be!

Date:

Astronomy

Oct. 31, 2013 Rise Set
Actual Time 7:50 AM CDT 5:50 PM CDT
Civil Twilight 7:18 AM CDT 6:22 PM CDT
Nautical Twilight 6:41 AM CDT 6:59 PM CDT
Astronomical Twilight 6:05 AM CDT 7:35 PM CDT
Moon 4:28 AM CDT (10/31) 4:18 PM CDT (10/31)
Length of Visible Light 11h 04m
Length of Day
9h 59m
Waning Crescent, 10% of the Moon is Illuminated
Oct 31
Waning Crescent
Nov 3
New
Nov 9
First Quarter
Nov 17
Full
Nov 25
Last Quarter

Hourly Weather History & Observations

Time (CDT) Temp. Windchill Dew Point Humidity Pressure Visibility Wind Dir Wind Speed Gust Speed Precip Events Conditions
12:13 AM 37.4 °F - 37.4 °F 100% 29.64 in 1.0 mi Calm Calm - N/A   Overcast
12:33 AM 37.4 °F - 37.4 °F 100% 29.63 in 1.0 mi Calm Calm - N/A   Overcast
12:53 AM 37.4 °F - 37.4 °F 100% 29.63 in 0.8 mi Calm Calm - N/A   Overcast
1:13 AM 37.4 °F - 37.4 °F 100% 29.62 in 1.0 mi Calm Calm - N/A Rain Rain
1:33 AM 37.4 °F - 37.4 °F 100% 29.62 in 1.5 mi Calm Calm - N/A   Overcast
1:53 AM 37.4 °F 33.8 °F 37.4 °F 100% 29.61 in 2.5 mi South 4.6 mph - N/A   Overcast
2:13 AM 37.4 °F - 37.4 °F 100% 29.60 in 1.5 mi Calm Calm - N/A   Overcast
2:33 AM 39.2 °F - 37.4 °F 93% 29.59 in 1.0 mi Calm Calm - N/A   Overcast
2:53 AM 37.4 °F - 37.4 °F 100% 29.59 in 0.5 mi Calm Calm - N/A Fog Fog
3:13 AM 37.4 °F - 37.4 °F 100% 29.58 in 0.5 mi Calm Calm - N/A Fog Fog
3:33 AM 37.4 °F - 37.4 °F 100% 29.58 in 0.5 mi Calm Calm - N/A Fog Fog
3:53 AM 39.2 °F - 37.4 °F 93% 29.57 in 1.0 mi Calm Calm - N/A   Overcast
4:13 AM 39.2 °F - 37.4 °F 93% 29.56 in 0.8 mi Calm Calm - N/A   Overcast
4:33 AM 39.2 °F - 37.4 °F 93% 29.55 in 0.8 mi Calm Calm - N/A   Overcast
4:53 AM 39.2 °F - 37.4 °F 93% 29.54 in 0.8 mi Calm Calm - N/A   Overcast
5:13 AM 39.2 °F - 37.4 °F 93% 29.53 in 0.8 mi Calm Calm - N/A   Overcast
5:33 AM 39.2 °F - 37.4 °F 93% 29.53 in 2.0 mi Calm Calm - N/A   Overcast
5:53 AM 39.2 °F - 37.4 °F 93% 29.53 in 4.0 mi Calm Calm - N/A   Overcast
6:13 AM 39.2 °F - 37.4 °F 93% 29.52 in 1.8 mi Calm Calm - N/A   Overcast
6:33 AM 39.2 °F - 37.4 °F 93% 29.52 in 2.5 mi Calm Calm - N/A   Overcast
6:53 AM 39.2 °F - 37.4 °F 93% 29.51 in 2.0 mi Calm Calm - N/A   Overcast
7:13 AM 37.4 °F - 37.4 °F 100% 29.51 in 0.8 mi Calm Calm - N/A   Overcast
7:33 AM 37.4 °F - 37.4 °F 100% 29.51 in 0.5 mi Calm Calm - N/A Fog Fog
7:52 AM 39.2 °F - 37.4 °F 93% 29.50 in 0.5 mi Calm Calm - N/A Fog Fog
8:13 AM 39.2 °F - 37.4 °F 93% 29.51 in 0.8 mi Calm Calm - N/A   Overcast
8:33 AM 39.2 °F - 37.4 °F 93% 29.51 in 0.2 mi Calm Calm - N/A Fog Fog
8:52 AM 39.2 °F - 37.4 °F 93% 29.49 in 0.2 mi Calm Calm - N/A Fog Fog
9:13 AM 39.2 °F - 37.4 °F 93% 29.48 in 0.2 mi Calm Calm - N/A Fog Fog
9:33 AM 39.2 °F - 37.4 °F 93% 29.49 in 0.5 mi Calm Calm - N/A Fog Fog
9:52 AM 39.2 °F - 39.2 °F 100% 29.48 in 0.5 mi Calm Calm - N/A Fog Fog
10:13 AM 39.2 °F - 39.2 °F 100% 29.48 in 1.5 mi Calm Calm - N/A   Overcast
10:33 AM 39.2 °F - 39.2 °F 100% 29.47 in 1.0 mi Calm Calm - N/A   Overcast
10:52 AM 39.2 °F - 39.2 °F 100% 29.46 in 0.8 mi Calm Calm - N/A   Overcast
11:13 AM 39.2 °F - 39.2 °F 100% 29.46 in 1.0 mi Calm Calm - N/A   Overcast
11:33 AM 39.2 °F - 39.2 °F 100% 29.45 in 5.0 mi Calm Calm - N/A   Overcast
11:52 AM 39.2 °F - 39.2 °F 100% 29.45 in 2.5 mi Calm Calm - N/A   Overcast
12:13 PM 39.2 °F - 39.2 °F 100% 29.44 in 3.0 mi Calm Calm - N/A   Overcast
12:33 PM 41.0 °F - 39.2 °F 93% 29.42 in 3.0 mi Calm Calm - N/A   Overcast
12:52 PM 41.0 °F - 39.2 °F 93% 29.41 in 7.0 mi Calm Calm - N/A   Overcast
1:13 PM 41.0 °F 39.0 °F 39.2 °F 93% 29.40 in 7.0 mi NW 3.5 mph - N/A   Overcast
1:32 PM 41.0 °F - 39.2 °F 93% 29.39 in 10.0 mi Calm Calm - N/A   Overcast
1:53 PM 41.0 °F - 39.2 °F 93% 29.39 in 7.0 mi Calm Calm - N/A   Overcast
2:13 PM 41.0 °F - 39.2 °F 93% 29.38 in 10.0 mi Calm Calm - N/A   Overcast
2:32 PM 41.0 °F 39.0 °F 39.2 °F 93% 29.37 in 10.0 mi NW 3.5 mph - N/A   Overcast
2:53 PM 41.0 °F - 39.2 °F 93% 29.36 in 7.0 mi Calm Calm - N/A   Overcast
3:13 PM 41.0 °F 39.0 °F 39.2 °F 93% 29.37 in 10.0 mi NW 3.5 mph - N/A   Overcast
3:32 PM 41.0 °F - 39.2 °F 93% 29.36 in 5.0 mi Calm Calm - N/A   Overcast
3:53 PM 41.0 °F 38.0 °F 39.2 °F 93% 29.35 in 10.0 mi NW 4.6 mph - N/A   Overcast
4:12 PM 41.0 °F 38.0 °F 39.2 °F 93% 29.35 in 1.5 mi NW 4.6 mph - N/A   Overcast
4:33 PM 41.0 °F 38.0 °F 39.2 °F 93% 29.35 in 0.8 mi NW 4.6 mph - N/A   Overcast
4:53 PM 39.2 °F 35.9 °F 39.2 °F 100% 29.35 in 1.0 mi NNW 4.6 mph - N/A   Overcast
5:12 PM 39.2 °F 35.9 °F 39.2 °F 100% 29.34 in 1.0 mi NW 4.6 mph - N/A   Overcast
5:33 PM 39.2 °F 35.9 °F 39.2 °F 100% 29.34 in 2.5 mi NNW 4.6 mph - N/A   Overcast
5:53 PM 39.2 °F 35.9 °F 39.2 °F 100% 29.34 in 2.5 mi North 4.6 mph - N/A   Overcast
6:12 PM 39.2 °F - 39.2 °F 100% 29.34 in 7.0 mi Calm Calm - N/A   Overcast
6:33 PM 39.2 °F 35.9 °F 39.2 °F 100% 29.34 in 7.0 mi NNW 4.6 mph - N/A   Overcast
6:53 PM 39.2 °F 35.0 °F 39.2 °F 100% 29.35 in 7.0 mi NNW 5.8 mph - N/A   Overcast
7:12 PM 39.2 °F 35.9 °F 37.4 °F 93% 29.35 in 4.0 mi NNW 4.6 mph - N/A   Overcast
7:33 PM 39.2 °F 35.0 °F 37.4 °F 93% 29.35 in 4.0 mi NNW 5.8 mph - N/A   Overcast
7:53 PM 39.2 °F - 37.4 °F 93% 29.34 in 4.0 mi Calm Calm - N/A   Overcast
8:13 PM 39.2 °F 35.9 °F 37.4 °F 93% 29.34 in 4.0 mi NNW 4.6 mph - N/A   Overcast
8:32 PM 39.2 °F 35.9 °F 37.4 °F 93% 29.33 in 3.0 mi NNW 4.6 mph - N/A   Overcast
8:53 PM 39.2 °F 37.0 °F 37.4 °F 93% 29.33 in 5.0 mi NNW 3.5 mph - N/A   Overcast
9:13 PM 39.2 °F 37.0 °F 37.4 °F 93% 29.32 in 7.0 mi North 3.5 mph - N/A   Overcast
9:32 PM 39.2 °F 37.0 °F 37.4 °F 93% 29.32 in 10.0 mi NNW 3.5 mph - N/A   Overcast
9:53 PM 39.2 °F - 37.4 °F 93% 29.33 in 10.0 mi Calm Calm - N/A Rain Light Rain
10:13 PM 39.2 °F 35.9 °F 37.4 °F 93% 29.33 in 10.0 mi NW 4.6 mph - N/A   Light Drizzle
10:32 PM 37.4 °F 33.8 °F 37.4 °F 100% 29.33 in 10.0 mi NW 4.6 mph - N/A Rain Light Rain
10:53 PM 37.4 °F 33.8 °F 37.4 °F 100% 29.33 in 10.0 mi NW 4.6 mph - N/A   Overcast
11:13 PM 37.4 °F 32.8 °F 37.4 °F 100% 29.34 in 10.0 mi WNW 5.8 mph - N/A   Drizzle
11:32 PM 37.4 °F 32.8 °F 37.4 °F 100% 29.33 in 10.0 mi NW 5.8 mph - N/A Rain Rain
11:53 PM 37.4 °F 32.8 °F 37.4 °F 100% 29.33 in 7.0 mi NW 5.8 mph - N/A   Overcast